Weather History for KONL - October, 2012

Change the Weather History Date:

Tuesday, October 23, 2012

  Actual Average Record
Temperature  
Mean Temperature 52 °F -  
Max Temperature 59 °F 62 °F 84 °F (1991)
Min Temperature 46 °F 34 °F 13 °F (1981)
Degree Days  
Heating Degree Days 12    
Growing Degree Days 2 (Base 50)    
Moisture  
Dew Point 48 °F    
Average Humidity 91    
Maximum Humidity 100    
Minimum Humidity 75    
Precipitation  
Precipitation 0.00 in - - ()
Sea Level Pressure  
Sea Level Pressure 29.73 in    
Wind  
Wind Speed 5 mph (SSW)    
Max Wind Speed 13 mph    
Max Gust Speed 18 mph    
Visibility 6 miles    
Events      
Averages and records for this station are not official NWS values.
T = Trace of Precipitation, MM = Missing Value Source: NWS Daily Summary

Daily Weather History Graph

Daily Weather History Graph

Search for Another Location

Airport or City:

Trip Planner

Search our weather history database for the weather conditions in past years. The results will help you decide how hot, cold, wet, or windy it might be!

Date:

Astronomy

Oct. 23, 2012 Rise Set
Actual Time 7:57 AM CDT 6:39 PM CDT
Civil Twilight 7:29 AM CDT 7:08 PM CDT
Nautical Twilight 6:56 AM CDT 7:41 PM CDT
Astronomical Twilight 6:23 AM CDT 8:13 PM CDT
Moon 3:30 PM CDT (10/23) 1:44 AM CDT (10/23)
Length of Visible Light 11h 39m
Length of Day
10h 41m
Waxing Gibbous, 67% of the Moon is Illuminated
Oct 23
Waxing Gibbous
Oct 29
Full
Nov 6
Last Quarter
Nov 13
New
Nov 20
First Quarter

Hourly Weather History & Observations

Time (CDT) Temp. Windchill Dew Point Humidity Pressure Visibility Wind Dir Wind Speed Gust Speed Precip Events Conditions
12:15 AM 49.6 °F - 45.0 °F 84% 29.79 in 10.0 mi Calm Calm - N/A   Overcast
12:35 AM 49.6 °F - 45.0 °F 84% 29.79 in 10.0 mi WSW 3.5 mph - N/A   Overcast
12:55 AM 49.1 °F - 45.5 °F 87% 29.79 in 7.0 mi West 3.5 mph - N/A   Overcast
1:15 AM 48.7 °F - 45.7 °F 89% 29.78 in 7.0 mi West 4.6 mph - N/A   Overcast
1:35 AM 48.2 °F - 46.0 °F 92% 29.77 in 5.0 mi West 3.5 mph - N/A   Overcast
1:55 AM 48.2 °F - 46.4 °F 93% 29.77 in 3.0 mi WSW 3.5 mph - N/A   Overcast
2:15 AM 47.8 °F - 46.8 °F 96% 29.76 in 3.0 mi Calm Calm - N/A   Overcast
2:35 AM 48.0 °F - 46.9 °F 96% 29.76 in 3.0 mi WSW 4.6 mph - N/A   Overcast
2:55 AM 48.2 °F - 46.9 °F 95% 29.75 in 3.0 mi Calm Calm - N/A   Overcast
3:15 AM 48.2 °F - 47.1 °F 96% 29.74 in 4.0 mi Calm Calm - N/A   Overcast
3:35 AM 47.3 °F - 46.0 °F 95% 29.74 in 3.0 mi Calm Calm - N/A   Overcast
3:55 AM 48.0 °F - 46.9 °F 96% 29.73 in 4.0 mi Calm Calm - N/A   Overcast
4:15 AM 48.2 °F - 46.9 °F 95% 29.73 in 3.0 mi SSW 3.5 mph - N/A   Overcast
4:35 AM 48.2 °F - 47.3 °F 97% 29.72 in 3.0 mi SSW 5.8 mph - N/A   Overcast
4:55 AM 48.2 °F - 46.9 °F 95% 29.73 in 5.0 mi SSW 9.2 mph - N/A   Overcast
5:15 AM 47.5 °F - 46.6 °F 97% 29.74 in 3.0 mi SW 10.4 mph - N/A   Overcast
5:35 AM 47.3 °F - 46.4 °F 97% 29.74 in 2.5 mi SW 10.4 mph - N/A   Overcast
5:55 AM 47.3 °F - 46.4 °F 97% 29.74 in 2.5 mi SW 6.9 mph - N/A   Overcast
6:15 AM 46.4 °F 41.9 °F 46.4 °F 100% 29.72 in 2.5 mi SW 9.2 mph - N/A   Overcast
6:35 AM 47.1 °F - 46.4 °F 97% 29.72 in 2.5 mi SW 5.8 mph - N/A   Overcast
6:55 AM 47.3 °F - 46.6 °F 97% 29.72 in 2.0 mi SW 3.5 mph - N/A   Overcast
7:15 AM 47.3 °F - 46.6 °F 97% 29.72 in 0.8 mi SSW 4.6 mph - N/A   Overcast
7:35 AM 47.3 °F - 46.8 °F 98% 29.71 in 0.8 mi Calm Calm - N/A   Overcast
7:55 AM 47.3 °F - 46.9 °F 99% 29.72 in 0.8 mi SSW 3.5 mph - N/A   Overcast
8:15 AM 47.5 °F - 47.1 °F 99% 29.72 in 0.8 mi South 3.5 mph - N/A   Overcast
8:35 AM 47.7 °F - 47.3 °F 99% 29.72 in 0.8 mi Calm Calm - N/A   Overcast
8:55 AM 48.2 °F - 47.7 °F 98% 29.72 in 1.8 mi Calm Calm - N/A   Overcast
9:15 AM 48.6 °F - 48.2 °F 99% 29.72 in 1.2 mi South 3.5 mph - N/A   Overcast
9:35 AM 49.1 °F - 48.7 °F 99% 29.73 in 1.0 mi South 6.9 mph - N/A   Overcast
9:55 AM 49.5 °F - 48.9 °F 98% 29.72 in 1.0 mi South 6.9 mph - N/A   Overcast
10:15 AM 50.0 °F - 49.3 °F 97% 29.72 in 1.0 mi South 9.2 mph - N/A   Overcast
10:55 AM 51.1 °F - 49.8 °F 95% 29.72 in 3.0 mi SSW 6.9 mph - N/A   Overcast
11:15 AM 51.8 °F - 49.3 °F 91% 29.71 in 7.0 mi SSW 8.1 mph - N/A   Overcast
11:35 AM 52.0 °F - 49.1 °F 90% 29.71 in 10.0 mi SSW 10.4 mph - N/A   Overcast
11:55 AM 52.2 °F - 49.3 °F 90% 29.72 in 10.0 mi SSW 9.2 mph - N/A   Overcast
12:15 PM 52.7 °F - 49.5 °F 89% 29.71 in 10.0 mi South 9.2 mph - N/A   Overcast
12:35 PM 52.7 °F - 49.6 °F 89% 29.71 in 10.0 mi South 10.4 mph - N/A   Overcast
12:55 PM 53.6 °F - 50.0 °F 88% 29.71 in 10.0 mi SSW 9.2 mph - N/A   Overcast
1:15 PM 54.3 °F - 50.5 °F 87% 29.70 in 10.0 mi South 9.2 mph - N/A   Overcast
1:35 PM 55.2 °F - 50.9 °F 85% 29.69 in 10.0 mi South 9.2 mph - N/A   Overcast
1:55 PM 55.4 °F - 51.1 °F 85% 29.67 in 10.0 mi South 9.2 mph - N/A   Overcast
2:15 PM 55.9 °F - 51.3 °F 84% 29.69 in 10.0 mi SSW 12.7 mph - N/A   Overcast
2:35 PM 56.5 °F - 51.6 °F 84% 29.67 in 10.0 mi South 12.7 mph 18.4 mph N/A   Overcast
2:55 PM 57.9 °F - 52.0 °F 81% 29.67 in 10.0 mi SSW 10.4 mph - N/A   Overcast
3:15 PM 58.1 °F - 52.0 °F 80% 29.67 in 10.0 mi SW 12.7 mph 18.4 mph N/A   Overcast
3:35 PM 57.2 °F - 51.8 °F 82% 29.70 in 10.0 mi WSW 12.7 mph - N/A   Overcast
3:55 PM 57.2 °F - 51.4 °F 81% 29.70 in 10.0 mi WSW 9.2 mph - N/A   Overcast
4:15 PM 57.6 °F - 51.8 °F 81% 29.69 in 10.0 mi WSW 5.8 mph - N/A   Overcast
4:35 PM 59.0 °F - 51.8 °F 77% 29.69 in 10.0 mi SSW 8.1 mph - N/A   Mostly Cloudy
4:55 PM 59.7 °F - 51.8 °F 75% 29.69 in 10.0 mi SSW 9.2 mph - N/A   Clear
5:15 PM 59.7 °F - 51.8 °F 75% 29.70 in 10.0 mi South 8.1 mph - N/A   Clear
5:35 PM 59.5 °F - 51.8 °F 76% 29.70 in 10.0 mi SSW 9.2 mph - N/A   Clear
5:55 PM 59.0 °F - 51.4 °F 76% 29.70 in 10.0 mi South 8.1 mph - N/A   Clear
6:15 PM 57.6 °F - 51.4 °F 80% 29.71 in 10.0 mi South 8.1 mph - N/A   Clear
6:35 PM 55.4 °F - 50.4 °F 83% 29.72 in 10.0 mi SSE 5.8 mph - N/A   Clear
6:55 PM 54.1 °F - 50.0 °F 86% 29.72 in 10.0 mi South 6.9 mph - N/A   Clear
7:15 PM 52.9 °F - 49.5 °F 88% 29.72 in 10.0 mi SSE 6.9 mph - N/A   Clear
7:35 PM 52.3 °F - 49.3 °F 89% 29.73 in 10.0 mi SSE 6.9 mph - N/A   Clear
7:55 PM 52.2 °F - 49.6 °F 91% 29.74 in 10.0 mi SSE 5.8 mph - N/A   Clear
8:15 PM 51.3 °F - 49.1 °F 92% 29.75 in 10.0 mi South 4.6 mph - N/A   Clear
8:35 PM 51.1 °F - 49.3 °F 94% 29.75 in 7.0 mi SSE 4.6 mph - N/A   Clear
8:55 PM 49.8 °F - 48.7 °F 96% 29.77 in 7.0 mi West 3.5 mph - N/A   Clear
9:15 PM 48.6 °F - 47.7 °F 97% 29.77 in 5.0 mi Calm Calm - N/A   Clear
9:35 PM 47.8 °F - 46.9 °F 97% 29.78 in 4.0 mi Calm Calm - N/A   Clear
9:55 PM 46.9 °F - 46.2 °F 97% 29.79 in 3.0 mi Calm Calm - N/A   Clear
10:15 PM 46.6 °F - 46.2 °F 99% 29.80 in 3.0 mi WNW 6.9 mph - N/A   Clear
10:35 PM 47.8 °F - 47.1 °F 97% 29.80 in 5.0 mi West 4.6 mph - N/A   Clear
10:55 PM 48.7 °F - 47.5 °F 95% 29.80 in 7.0 mi NW 9.2 mph - N/A   Clear
11:15 PM 48.2 °F - 46.4 °F 93% 29.81 in 10.0 mi NW 10.4 mph - N/A   Clear
11:35 PM 48.2 °F - 45.7 °F 91% 29.81 in 10.0 mi NNW 9.2 mph - N/A   Clear
11:55 PM 48.4 °F - 46.8 °F 94% 29.82 in 7.0 mi North 11.5 mph - N/A   Clear